Location: Boiro
(42.6475°N, 8.8834°W)
Time: 17:53:12
(UTC+01:00)

A-11 Canister half - Pass Details

Date: 07 December 2021
Orbit: 1516 x 1684 km, 47.2° (Epoch: 26 January)

Event Time Altitude Azimuth Distance (km) Brightness Sun altitude
Rises 11:10:46 0° 281° (W) 4,815 11.2 17.5°
Reaches altitude 10° 11:13:53 10° 284° (WNW) 3,851 10.7 17.8°
Maximum altitude 11:23:47 70° 8° (N) 1,745 9.4 18.8°
Drops below altitude 10° 11:33:55 10° 92° (E) 3,943 11.6 19.7°
Sets 11:37:09 0° 95° (E) 4,935 12.1 20.0°
